This is the latest recevied weather packets stored in our database for station/object WK7G. If no packets are shown the sender has not sent any weather packets the latest 10 day(s).
| Time | Temp. | Humidity | Pressure | Rain* | Wind** | Luminosity | Snow |
|---|---|---|---|---|---|---|---|
| 1778011948 | 11.67° C | 32% | 1003.8 hPa | 0 mm | - | 730 W/m² | - |
| 1778011645 | 12.22° C | 34% | 1003.9 hPa | 0 mm | - | 125 W/m² | - |
| 1778011342 | 12.78° C | 32% | 1003.9 hPa | 0 mm | - | 789 W/m² | - |
| 1778011038 | 12.78° C | 34% | 1003.7 hPa | 0 mm | - | 773 W/m² | - |
| 1778010735 | 12.22° C | 33% | 1003.9 hPa | 0 mm | - | 783 W/m² | - |
| 1778010433 | 12.22° C | 32% | 1003.8 hPa | 0 mm | - | 791 W/m² | - |
| 1778010129 | 12.22° C | 32% | 1004 hPa | 0 mm | - | 781 W/m² | - |
| 1778009825 | 12.22° C | 33% | 1003.9 hPa | 0 mm | - | 809 W/m² | - |
| 1778009522 | 12.22° C | 34% | 1003.4 hPa | 0 mm | - | 783 W/m² | - |
| 1778009221 | 12.78° C | 39% | 1003.7 hPa | 0 mm | - | 791 W/m² | - |
| 1778008918 | 12.78° C | 36% | 1003.8 hPa | 0 mm | - | 819 W/m² | - |
| 1778008616 | 12.78° C | 34% | 1003.4 hPa | 0 mm | - | 809 W/m² | - |
| 1778008314 | 12.22° C | 34% | 1003.9 hPa | 0 mm | - | 801 W/m² | - |
| 1778008010 | 12.22° C | 35% | 1003.9 hPa | 0 mm | - | 831 W/m² | - |
| 1778007710 | 12.78° C | 33% | 1003.7 hPa | 0 mm | - | 862 W/m² | - |
| 1778007407 | 12.22° C | 35% | 1003.8 hPa | 0 mm | - | 872 W/m² | - |
| 1778007103 | 12.22° C | 34% | 1003.8 hPa | 0 mm | - | 866 W/m² | - |
| 1778006800 | 12.22° C | 34% | 1003.8 hPa | 0 mm | - | 867 W/m² | - |
| 1778006497 | 12.78° C | 35% | 1003.9 hPa | 0 mm | - | 885 W/m² | - |
| 1778006193 | 12.78° C | 34% | 1003.9 hPa | 0 mm | - | 878 W/m² | - |
| 1778005891 | 12.22° C | 37% | 1003.8 hPa | 0 mm | - | 893 W/m² | - |
| 1778005587 | 12.22° C | 35% | 1004 hPa | 0 mm | - | 864 W/m² | - |
| 1778005284 | 12.22° C | 33% | 1003.9 hPa | 0 mm | - | 883 W/m² | - |
| 1778004981 | 12.22° C | 36% | 1004 hPa | 0 mm | - | 874 W/m² | - |
| 1778004678 | 12.22° C | 34% | 1004 hPa | 0 mm | - | 856 W/m² | - |
* Rain latest hour (hover to see other rain measurements)
** Current wind speed in m/s (hover to see current wind gust speed)